Total_Precipitation_Accumulation
0.00 0.00 0.00 0.00 0.00 0.00 0.00 0.00 0.00 0.00 0.00 0.00 0.00 0.00 0.00 0.00 0.00 0.00 0.00 0.01 0.01 0.01 0.00 0.01 0.01 0.01 0.01 0.01 0.02 0.03 0.03 0.02 0.02 0.03 0.03 0.03 0.02 0.02 0.03 0.04 0.02 0.04 0.05 0.05 0.04 0.08 0.19 0.13 0.15 0.10 0.11 0.19 0.10 0.15 0.27 0.09 0.18 0.23 0.29 0.42 0.42 0.27 0.38 0.39 0.35 0.16 0.08 0.03 0.03 0.03 0.02 0.10 0.23 0.41 0.56 0.53 0.45 0.36 0.26 0.35 0.23 0.20 0.15 0.18 0.20
0.00 0.00 0.00 0.00 0.00 0.00 0.00 0.00 0.00 0.00 0.00 0.00 0.00 0.00 0.00 0.00 0.00 0.00 0.00 0.00 0.01 0.01 0.00 0.01 0.00 0.01 0.01 0.01 0.01 0.01 0.05 0.03 0.04 0.03 0.02 0.02 0.02 0.02 0.02 0.04 0.03 0.04 0.05 0.04 0.09 0.07 0.07 0.08 0.12 0.07 0.08 0.14 0.12 0.23 0.26 0.17 0.15 0.22 0.42 0.32 0.30 0.20 0.26 0.41 0.32 0.32 0.14 0.07 0.04 0.05 0.01 0.03 0.06 0.06 0.46 0.43 0.24 0.42 0.28 0.24 0.28 0.37 0.25 0.29 0.30
0.00 0.00 0.03 0.06 0.01 0.00 0.00 0.00 0.00 0.00 0.00 0.00 0.00 0.00 0.00 0.00 0.00 0.00 0.00 0.00 0.00 0.01 0.00 0.01 0.00 0.01 0.01 0.01 0.02 0.02 0.02 0.05 0.04 0.04 0.06 0.05 0.04 0.03 0.02 0.03 0.04 0.05 0.07 0.11 0.07 0.10 0.12 0.13 0.10 0.11 0.12 0.15 0.15 0.18 0.14 0.19 0.24 0.26 0.15 0.15 0.25 0.33 0.23 0.31 0.24 0.27 0.14 0.07 0.04 0.06 0.03 0.03 0.05 0.05 0.09 0.04 0.27 0.46 0.40 0.41 0.51 0.63 0.53 0.49 0.30
0.00 0.03 0.03 0.01 0.00 0.00 0.00 0.01 0.00 0.00 0.00 0.00 0.00 0.00 0.00 0.00 0.00 0.00 0.00 0.01 0.01 0.01 0.01 0.01 0.00 0.01 0.01 0.01 0.01 0.02 0.03 0.06 0.08 0.05 0.05 0.08 0.08 0.05 0.07 0.06 0.09 0.09 0.10 0.08 0.05 0.03 0.06 0.06 0.06 0.10 0.10 0.11 0.10 0.28 0.15 0.17 0.28 0.22 0.40 0.25 0.20 0.19 0.28 0.28 0.33 0.28 0.14 0.18 0.04 0.04 0.01 0.05 0.05 0.02 0.01 0.02 0.06 0.36 0.29 0.24 0.32 0.40 0.25 0.29 0.25
0.03 0.11 0.05 0.00 0.00 0.00 0.01 0.01 0.01 0.01 0.00 0.00 0.00 0.00 0.00 0.00 0.00 0.00 0.00 0.00 0.00 0.00 0.01 0.00 0.01 0.01 0.01 0.02 0.01 0.02 0.04 0.02 0.03 0.07 0.05 0.07 0.06 0.07 0.16 0.11 0.07 0.07 0.04 0.06 0.04 0.07 0.10 0.13 0.08 0.09 0.13 0.24 0.10 0.20 0.22 0.40 0.20 0.41 0.26 0.25 0.20 0.41 0.43 0.21 0.23 0.26 0.20 0.20 0.08 0.03 0.04 0.04 0.03 0.04 0.04 0.08 0.10 0.10 0.16 0.25 0.20 0.23 0.30 0.31 0.20
0.19 0.11 0.16 0.08 0.00 0.01 0.01 0.01 0.02 0.02 0.02 0.01 0.00 0.00 0.00 0.00 0.00 0.00 0.00 0.01 0.00 0.00 0.00 0.01 0.01 0.01 0.01 0.01 0.01 0.02 0.09 0.08 0.10 0.07 0.09 0.06 0.05 0.06 0.06 0.04 0.06 0.03 0.03 0.02 0.06 0.09 0.10 0.10 0.05 0.12 0.13 0.11 0.14 0.32 0.20 0.17 0.40 0.22 0.32 0.42 0.31 0.31 0.51 0.22 0.30 0.25 0.30 0.16 0.13 0.13 0.11 0.11 0.04 0.04 0.03 0.05 0.06 0.10 0.15 0.20 0.23 0.18 0.31 0.29 0.16
0.25 0.37 0.03 0.01 0.01 0.05 0.04 0.02 0.05 0.19 0.10 0.15 0.02 0.00 0.00 0.00 0.00 0.00 0.00 0.00 0.00 0.00 0.01 0.01 0.01 0.01 0.01 0.01 0.02 0.03 0.10 0.11 0.17 0.11 0.11 0.06 0.07 0.07 0.04 0.03 0.04 0.07 0.01 0.02 0.02 0.03 0.07 0.11 0.08 0.12 0.13 0.11 0.10 0.14 0.11 0.14 0.13 0.19 0.21 0.28 0.43 0.30 0.39 0.24 0.38 0.39 0.59 0.37 0.32 0.23 0.12 0.06 0.13 0.10 0.08 0.12 0.10 0.10 0.18 0.51 0.41 0.13 0.32 0.19 0.23
0.76 0.46 0.09 0.15 0.39 0.14 0.30 0.09 0.51 0.14 0.17 0.07 0.01 0.00 0.00 0.00 0.00 0.00 0.00 0.00 0.00 0.01 0.00 0.00 0.00 0.01 0.00 0.01 0.02 0.06 0.08 0.15 0.12 0.16 0.14 0.12 0.09 0.04 0.06 0.15 0.11 0.04 0.02 0.02 0.03 0.05 0.03 0.06 0.09 0.21 0.26 0.13 0.16 0.21 0.30 0.31 0.50 0.53 0.47 0.48 0.37 0.49 0.47 0.61 0.44 0.45 0.47 0.34 0.20 0.22 0.20 0.09 0.09 0.06 0.06 0.11 0.22 0.28 0.26 0.16 0.16 0.30 0.56 0.39 0.17
0.33 0.10 0.20 0.50 0.17 0.44 0.67 0.33 0.44 0.06 0.01 0.02 0.03 0.00 0.01 0.00 0.01 0.01 0.00 0.01 0.00 0.00 0.00 0.00 0.00 0.02 0.00 0.01 0.02 0.10 0.18 0.16 0.18 0.24 0.28 0.26 0.09 0.04 0.04 0.02 0.05 0.04 0.03 0.03 0.04 0.04 0.05 0.05 0.05 0.21 0.32 0.30 0.19 0.22 0.25 0.41 0.71 0.93 0.83 1.16 0.79 0.80 0.53 0.33 0.42 0.36 0.49 0.47 0.46 0.40 0.20 0.18 0.16 0.14 0.13 0.27 0.19 0.10 0.09 0.12 0.13 0.27 0.75 0.48 0.29
0.16 0.43 0.41 0.24 0.15 0.83 0.52 0.50 0.17 0.09 0.01 0.02 0.04 0.01 0.02 0.02 0.02 0.01 0.04 0.08 0.02 0.00 0.00 0.00 0.00 0.00 0.00 0.01 0.06 0.11 0.14 0.16 0.25 0.13 0.07 0.05 0.04 0.02 0.02 0.03 0.03 0.03 0.04 0.03 0.02 0.04 0.06 0.09 0.06 0.06 0.07 0.08 0.10 0.14 0.13 0.20 0.20 0.23 0.33 0.66 0.56 0.53 0.48 0.40 0.56 0.31 0.42 0.41 0.34 0.39 0.40 0.19 0.13 0.21 0.15 0.11 0.16 0.10 0.13 0.31 0.25 0.13 0.45 0.51 0.50
0.02 0.01 0.01 0.08 0.57 0.97 0.81 0.30 0.08 0.07 0.02 0.07 0.06 0.04 0.04 0.05 0.06 0.03 0.01 0.01 0.00 0.00 0.00 0.00 0.00 0.00 0.00 0.00 0.02 0.06 0.19 0.31 0.09 0.10 0.04 0.01 0.02 0.02 0.03 0.02 0.02 0.02 0.03 0.06 0.03 0.03 0.05 0.07 0.12 0.15 0.17 0.13 0.33 0.51 0.49 0.08 0.11 0.23 0.10 0.17 0.39 0.53 0.60 0.40 0.38 0.33 0.47 0.47 0.29 0.22 0.38 0.25 0.17 0.14 0.10 0.14 0.23 0.12 0.09 0.17 0.18 0.18 0.27 0.32 0.20
0.03 0.02 0.07 0.43 1.30 1.13 0.45 0.19 0.31 0.30 0.12 0.17 0.12 0.10 0.06 0.04 0.02 0.04 0.00 0.01 0.01 0.00 0.00 0.00 0.00 0.00 0.00 0.01 0.03 0.05 0.30 0.12 0.07 0.04 0.01 0.01 0.02 0.02 0.02 0.03 0.02 0.01 0.04 0.04 0.04 0.05 0.06 0.10 0.14 0.23 0.26 0.25 0.27 0.32 0.45 0.30 0.49 0.50 0.18 0.05 0.04 0.07 0.20 0.37 0.50 0.55 0.46 0.40 0.32 0.18 0.15 0.14 0.09 0.10 0.07 0.06 0.07 0.14 0.16 0.16 0.43 0.21 0.21 0.18 0.17
0.05 0.06 0.24 0.97 1.33 0.63 0.23 0.58 0.94 0.44 0.22 0.19 0.21 0.02 0.02 0.01 0.01 0.00 0.00 0.00 0.01 0.04 0.00 0.00 0.00 0.00 0.01 0.01 0.05 0.03 0.30 0.17 0.04 0.01 0.00 0.00 0.01 0.01 0.02 0.03 0.02 0.02 0.03 0.04 0.06 0.07 0.10 0.16 0.22 0.27 0.30 0.21 0.24 0.26 0.28 0.36 0.11 0.10 0.12 0.19 0.46 0.12 0.05 0.02 0.05 0.11 0.31 0.42 0.28 0.17 0.12 0.07 0.09 0.09 0.05 0.06 0.06 0.12 0.19 0.36 0.19 0.30 0.20 0.33 0.12
0.10 0.50 0.94 0.83 0.57 0.14 0.19 0.54 0.74 0.52 0.21 0.19 0.11 0.05 0.02 0.02 0.02 0.01 0.01 0.01 0.00 0.00 0.00 0.00 0.00 0.01 0.04 0.18 0.05 0.04 0.19 0.14 0.00 0.00 0.00 0.00 0.00 0.00 0.01 0.03 0.03 0.03 0.04 0.04 0.07 0.12 0.11 0.11 0.12 0.11 0.17 0.28 0.26 0.19 0.21 0.16 0.13 0.15 0.07 0.03 0.04 0.07 0.16 0.22 0.05 0.01 0.05 0.16 0.19 0.22 0.11 0.07 0.10 0.07 0.08 0.09 0.08 0.10 0.15 0.23 0.24 0.26 0.40 0.27 0.16
0.72 0.79 0.53 0.62 0.19 0.14 0.44 1.07 1.13 0.51 0.24 0.14 0.08 0.11 0.07 0.04 0.07 0.10 0.07 0.00 0.00 0.00 0.00 0.00 0.00 0.20 0.34 0.22 0.11 0.07 0.08 0.02 0.00 0.00 0.00 0.00 0.00 0.00 0.00 0.02 0.05 0.06 0.11 0.08 0.15 0.16 0.15 0.11 0.12 0.17 0.17 0.14 0.19 0.08 0.08 0.11 0.09 0.09 0.11 0.06 0.02 0.01 0.02 0.04 0.08 0.09 0.03 0.03 0.11 0.11 0.10 0.11 0.10 0.12 0.11 0.08 0.19 0.12 0.19 0.26 0.20 0.24 0.28 0.56 0.58
0.38 0.26 0.40 0.22 0.35 0.63 0.79 1.01 0.60 0.19 0.10 0.11 0.20 0.06 0.01 0.00 0.00 0.00 0.00 0.00 0.01 0.00 0.00 0.00 0.08 0.21 0.14 0.08 0.04 0.02 0.04 0.01 0.00 0.01 0.01 0.01 0.01 0.00 0.05 0.07 0.06 0.11 0.07 0.08 0.22 0.28 0.18 0.20 0.30 0.29 0.27 0.24 0.08 0.06 0.05 0.05 0.06 0.05 0.06 0.08 0.08 0.04 0.01 0.01 0.01 0.01 0.04 0.07 0.07 0.13 0.16 0.16 0.18 0.19 0.14 0.12 0.21 0.30 0.37 0.43 0.53 0.90 1.29 1.27 1.02
0.36 0.41 0.24 0.71 0.79 0.97 0.97 0.75 0.65 0.12 0.19 0.10 0.04 0.01 0.02 0.01 0.01 0.00 0.00 0.01 0.01 0.01 0.01 0.02 0.22 0.21 0.09 0.07 0.07 0.04 0.07 0.05 0.05 0.14 0.03 0.02 0.01 0.03 0.10 0.05 0.04 0.08 0.09 0.10 0.15 0.16 0.16 0.42 0.37 0.37 0.15 0.09 0.04 0.03 0.05 0.04 0.04 0.04 0.07 0.07 0.09 0.06 0.04 0.02 0.01 0.01 0.03 0.08 0.12 0.10 0.08 0.06 0.05 0.04 0.15 0.48 0.76 0.87 0.88 0.82 0.83 0.52 0.91 0.58 0.28
0.17 0.13 0.37 0.34 0.92 1.09 0.92 0.54 0.35 0.21 0.04 0.03 0.03 0.03 0.02 0.01 0.00 0.00 0.02 0.02 0.02 0.02 0.04 0.09 0.31 0.15 0.10 0.06 0.06 0.12 0.05 0.09 0.24 0.12 0.04 0.02 0.01 0.04 0.09 0.06 0.08 0.14 0.29 0.30 0.38 0.31 0.43 0.41 0.22 0.19 0.15 0.12 0.09 0.07 0.04 0.03 0.04 0.05 0.06 0.09 0.10 0.08 0.06 0.04 0.06 0.05 0.03 0.03 0.02 0.02 0.02 0.02 0.04 0.05 0.05 0.07 0.11 0.24 1.00 0.72 0.34 0.42 0.74 0.38 0.34
0.02 0.03 0.51 1.18 0.72 0.28 0.16 0.14 0.15 0.04 0.03 0.08 0.04 0.02 0.01 0.01 0.01 0.04 0.03 0.06 0.09 0.06 0.04 0.12 0.20 0.18 0.21 0.10 0.03 0.05 0.11 0.20 0.08 0.09 0.04 0.03 0.02 0.04 0.08 0.20 0.23 0.33 0.23 0.19 0.15 0.25 0.18 0.31 0.18 0.19 0.20 0.18 0.12 0.08 0.07 0.08 0.10 0.14 0.16 0.16 0.13 0.09 0.04 0.05 0.09 0.15 0.11 0.08 0.06 0.12 0.04 0.04 0.10 0.06 0.04 0.04 0.04 0.08 0.39 0.67 0.56 0.70 0.76 0.69 0.37
0.01 0.33 1.04 0.42 0.17 0.07 0.07 0.06 0.02 0.02 0.04 0.03 0.02 0.01 0.04 0.06 0.03 0.05 0.10 0.26 0.08 0.08 0.04 0.12 0.26 0.34 0.12 0.12 0.13 0.11 0.17 0.36 0.33 0.19 0.07 0.03 0.01 0.04 0.23 0.22 0.18 0.11 0.14 0.07 0.12 0.07 0.10 0.16 0.19 0.18 0.20 0.20 0.19 0.14 0.14 0.15 0.16 0.24 0.24 0.26 0.26 0.20 0.09 0.11 0.11 0.18 0.25 0.16 0.10 0.08 0.09 0.07 0.06 0.11 0.21 0.10 0.05 0.07 0.11 0.20 0.33 0.51 0.85 0.62 0.65
0.23 0.81 0.44 0.19 0.09 0.04 0.06 0.04 0.02 0.01 0.01 0.05 0.21 0.14 0.09 0.06 0.06 0.06 0.15 0.11 0.09 0.15 0.17 0.19 0.18 0.43 0.23 0.25 0.22 0.49 0.36 0.29 0.25 0.12 0.03 0.03 0.02 0.02 0.01 0.07 0.21 0.09 0.09 0.07 0.07 0.08 0.14 0.21 0.24 0.21 0.21 0.18 0.19 0.22 0.24 0.24 0.21 0.27 0.37 0.42 0.51 0.45 0.26 0.19 0.18 0.15 0.26 0.27 0.24 0.23 0.27 0.24 0.20 0.16 0.22 0.32 0.25 0.13 0.10 0.08 0.13 0.31 0.43 0.53 0.61
0.27 0.17 0.04 0.03 0.03 0.05 0.05 0.04 0.02 0.09 0.25 0.34 0.33 0.11 0.04 0.04 0.02 0.01 0.21 0.24 0.08 0.18 0.48 0.36 0.31 0.12 0.27 0.27 0.24 0.44 0.49 0.14 0.14 0.16 0.06 0.04 0.03 0.03 0.01 0.04 0.02 0.06 0.05 0.07 0.10 0.13 0.22 0.23 0.25 0.24 0.24 0.20 0.22 0.27 0.36 0.52 0.70 0.54 0.68 0.74 1.04 1.09 0.79 0.83 0.58 0.31 0.48 0.56 0.65 0.53 0.51 0.51 0.33 0.32 0.29 0.25 0.22 0.23 0.13 0.12 0.08 0.10 0.15 0.20 0.31
0.14 0.10 0.06 0.06 0.05 0.02 0.02 0.08 0.14 0.20 0.34 0.14 0.29 0.15 0.09 0.09 0.02 0.24 0.36 0.26 0.08 0.56 0.13 0.25 0.45 0.31 0.40 0.53 0.65 0.60 0.58 0.45 0.22 0.10 0.03 0.02 0.02 0.02 0.02 0.02 0.01 0.03 0.08 0.07 0.09 0.19 0.26 0.26 0.26 0.19 0.21 0.19 0.22 0.31 0.48 0.55 0.81 1.07 0.86 0.69 0.70 0.86 0.96 0.74 0.64 0.58 0.72 0.77 1.26 1.14 0.94 0.79 0.81 0.65 0.44 0.52 0.51 0.40 0.30 0.13 0.13 0.15 0.23 0.27 0.30
0.06 0.16 0.17 0.12 0.04 0.02 0.05 0.11 0.14 0.20 0.19 0.30 0.24 0.29 0.22 0.21 0.22 0.54 0.32 0.10 0.23 0.27 0.62 0.24 0.35 0.23 0.25 0.30 0.41 0.43 0.70 0.40 0.10 0.03 0.05 0.02 0.02 0.02 0.01 0.01 0.01 0.00 0.07 0.06 0.06 0.15 0.24 0.21 0.22 0.20 0.18 0.24 0.33 0.35 0.42 0.60 0.79 0.68 0.72 0.64 0.59 0.76 1.16 1.37 1.08 0.90 1.28 1.07 1.09 0.95 0.95 0.96 1.23 1.34 1.14 0.80 0.77 0.88 0.82 0.64 0.53 0.41 0.36 0.52 0.47
0.11 0.12 0.06 0.03 0.02 0.12 0.11 0.14 0.30 0.17 0.24 0.32 0.32 0.07 0.24 0.44 0.40 0.26 0.31 0.34 0.26 0.23 0.21 0.16 0.25 0.88 0.40 0.36 0.80 0.91 0.59 0.28 0.17 0.18 0.01 0.01 0.01 0.01 0.00 0.00 0.00 0.01 0.00 0.02 0.06 0.11 0.15 0.17 0.16 0.19 0.16 0.22 0.29 0.49 0.40 0.41 0.58 0.61 0.55 0.57 0.80 0.81 0.70 1.18 1.71 1.36 1.69 1.57 1.25 0.96 0.75 0.88 1.16 1.00 1.15 1.43 1.04 1.03 0.87 0.73 0.47 0.65 0.54 0.57 0.66
0.02 0.02 0.03 0.02 0.05 0.17 0.17 0.21 0.18 0.34 0.42 0.19 0.25 0.23 0.34 0.22 0.13 0.20 0.28 0.09 0.19 0.84 0.67 0.54 0.16 0.16 0.24 0.76 0.66 0.31 0.29 0.30 0.37 0.30 0.01 0.01 0.01 0.00 0.00 0.00 0.00 0.00 0.00 0.00 0.00 0.01 0.08 0.18 0.13 0.11 0.13 0.10 0.15 0.43 0.53 0.47 0.44 0.57 0.58 0.49 0.43 0.64 0.66 0.99 1.38 1.73 1.62 1.53 1.31 1.37 1.11 0.91 0.83 1.54 1.48 1.41 1.86 2.36 1.37 1.37 1.17 0.87 0.64 0.49 0.70
0.03 0.01 0.02 0.09 0.15 0.11 0.22 0.21 0.23 0.14 0.16 0.33 0.22 0.06 0.03 0.09 0.13 0.15 0.20 0.30 0.34 0.20 0.10 0.10 0.34 0.33 0.42 0.60 0.35 0.57 0.36 0.28 0.27 0.03 0.01 0.00 0.00 0.00 0.00 0.00 0.00 0.00 0.01 0.09 0.01 0.00 0.00 0.19 0.05 0.05 0.06 0.08 0.09 0.17 0.37 0.44 0.45 0.46 0.63 0.59 0.50 0.40 0.49 0.59 1.00 1.63 1.93 2.04 1.41 1.20 1.35 1.25 1.23 0.73 0.87 1.09 1.21 1.36 1.95 1.81 1.15 1.42 1.00 0.85 1.07
0.06 0.09 0.03 0.04 0.05 0.09 0.08 0.07 0.06 0.06 0.04 0.01 0.00 0.06 0.10 0.23 0.14 0.17 0.25 0.47 0.20 0.19 0.07 0.08 0.17 0.12 0.20 0.05 0.37 0.52 0.32 0.41 0.02 0.00 0.00 0.00 0.00 0.00 0.00 0.00 0.00 0.00 0.00 0.00 0.00 0.00 0.00 0.01 0.02 0.05 0.03 0.06 0.07 0.10 0.22 0.35 0.42 0.44 0.47 0.59 0.58 0.47 0.32 0.34 0.52 0.82 1.09 1.75 2.16 1.72 1.39 1.18 0.90 0.99 1.31 1.17 1.03 1.78 1.95 1.51 1.41 1.12 1.47 1.93 1.45
0.42 0.42 0.39 0.10 0.12 0.10 0.07 0.06 0.05 0.03 0.03 0.05 0.00 0.01 0.04 0.12 0.03 0.06 0.01 0.00 0.00 0.02 0.05 0.05 0.05 0.02 0.05 0.26 0.15 0.08 0.03 0.01 0.00 0.01 0.00 0.01 0.00 0.00 0.00 0.00 0.00 0.00 0.00 0.00 0.00 0.00 0.00 0.09 0.12 0.01 0.00 0.00 0.02 0.03 0.09 0.21 0.30 0.39 0.44 0.46 0.58 0.53 0.42 0.31 0.32 0.58 0.86 0.93 1.15 1.51 1.94 1.53 1.42 1.33 1.19 0.94 1.53 1.61 2.07 2.15 1.90 1.44 1.86 1.93 1.33
0.09 0.05 0.04 0.03 0.02 0.05 0.12 0.06 0.06 0.06 0.03 0.14 0.10 0.01 0.02 0.01 0.00 0.03 0.00 0.00 0.00 0.00 0.00 0.01 0.00 0.00 0.06 0.01 0.00 0.00 0.00 0.00 0.01 0.01 0.01 0.01 0.01 0.01 0.01 0.01 0.01 0.00 0.00 0.00 0.00 0.00 0.06 0.09 0.00 0.00 0.00 0.00 0.00 0.01 0.03 0.12 0.20 0.25 0.36 0.39 0.48 0.57 0.51 0.40 0.34 0.41 0.81 0.97 0.87 0.88 0.94 1.24 1.33 1.52 1.39 1.23 1.33 1.21 1.93 2.35 2.69 2.12 1.74 2.68 2.50
0.04 0.02 0.04 0.02 0.02 0.08 0.23 0.18 0.08 0.18 0.02 0.07 0.29 0.01 0.07 0.00 0.01 0.01 0.00 0.00 0.00 0.00 0.00 0.01 0.01 0.01 0.00 0.00 0.00 0.01 0.01 0.01 0.01 0.01 0.00 0.01 0.00 0.00 0.00 0.00 0.00 0.00 0.00 0.00 0.02 0.11 0.01 0.00 0.00 0.00 0.00 0.00 0.00 0.00 0.01 0.03 0.13 0.15 0.23 0.30 0.37 0.47 0.54 0.43 0.43 0.46 0.50 0.79 0.89 0.88 0.89 0.92 0.82 1.02 1.23 1.34 1.42 1.58 1.42 1.76 2.42 2.72 2.69 2.17 2.52
0.01 0.12 0.04 0.03 0.10 0.04 0.12 0.12 0.04 0.02 0.01 0.02 0.01 0.15 0.07 0.38 0.02 0.03 0.02 0.02 0.01 0.01 0.01 0.01 0.01 0.01 0.01 0.01 0.00 0.00 0.00 0.00 0.00 0.00 0.00 0.00 0.00 0.00 0.00 0.00 0.00 0.00 0.00 0.00 0.00 0.00 0.00 0.00 0.00 0.00 0.00 0.00 0.00 0.00 0.00 0.01 0.04 0.08 0.11 0.15 0.24 0.35 0.52 0.47 0.47 0.40 0.41 0.51 0.77 0.96 0.99 0.99 0.89 0.79 0.83 1.05 1.20 1.52 1.49 1.38 1.48 2.12 2.94 2.55 2.05
0.03 0.04 0.02 0.03 0.03 0.02 0.01 0.04 0.05 0.02 0.01 0.02 0.03 0.03 0.26 0.19 0.33 0.06 0.08 0.03 0.02 0.03 0.02 0.01 0.00 0.00 0.00 0.01 0.01 0.01 0.01 0.00 0.00 0.00 0.00 0.00 0.00 0.00 0.00 0.00 0.00 0.00 0.00 0.00 0.00 0.01 0.00 0.00 0.00 0.01 0.00 0.00 0.00 0.00 0.00 0.00 0.02 0.06 0.06 0.06 0.12 0.22 0.34 0.53 0.46 0.39 0.41 0.30 0.40 0.72 0.90 0.97 1.05 1.00 0.91 0.95 0.95 1.14 1.26 1.31 1.35 1.34 1.71 2.50 2.30
0.00 0.01 0.02 0.01 0.02 0.01 0.01 0.01 0.01 0.01 0.02 0.04 0.04 0.30 0.44 0.46 0.51 0.23 0.08 0.25 0.20 0.12 0.05 0.02 0.01 0.00 0.01 0.01 0.00 0.00 0.00 0.00 0.00 0.00 0.00 0.00 0.00 0.00 0.00 0.00 0.00 0.00 0.00 0.00 0.00 0.00 0.00 0.00 0.01 0.00 0.01 0.01 0.00 0.00 0.00 0.00 0.00 0.01 0.02 0.04 0.05 0.12 0.31 0.15 0.20 0.27 0.37 0.40 0.31 0.33 0.54 0.73 0.85 0.99 1.01 0.91 0.80 0.89 1.03 0.95 1.01 1.12 1.21 1.43 1.96
0.00 0.00 0.00 0.00 0.01 0.01 0.02 0.02 0.02 0.04 0.05 0.07 0.09 0.13 0.24 0.35 0.64 0.53 0.37 0.26 0.20 0.15 0.04 0.02 0.01 0.01 0.01 0.00 0.01 0.01 0.00 0.00 0.00 0.00 0.00 0.00 0.00 0.00 0.00 0.00 0.01 0.00 0.00 0.00 0.00 0.00 0.00 0.01 0.02 0.02 0.02 0.00 0.00 0.00 0.00 0.00 0.00 0.00 0.00 0.01 0.03 0.08 0.13 0.08 0.07 0.12 0.19 0.34 0.34 0.30 0.35 0.44 0.57 0.71 0.86 0.97 0.98 0.87 0.86 0.85 0.69 0.79 0.95 1.00 1.20
0.01 0.01 0.03 0.03 0.01 0.02 0.02 0.07 0.06 0.04 0.03 0.10 0.20 0.19 0.10 0.06 0.17 0.53 0.26 0.21 0.27 0.20 0.04 0.02 0.01 0.00 0.01 0.01 0.01 0.01 0.00 0.00 0.01 0.00 0.00 0.00 0.01 0.00 0.02 0.01 0.00 0.00 0.00 0.00 0.00 0.01 0.00 0.01 0.01 0.00 0.00 0.00 0.00 0.00 0.00 0.00 0.00 0.00 0.00 0.00 0.02 0.01 0.02 0.02 0.02 0.02 0.04 0.08 0.15 0.20 0.31 0.36 0.42 0.45 0.56 0.67 0.83 0.92 0.88 0.89 0.89 0.83 0.87 0.96 1.07
0.03 0.06 0.11 0.15 0.05 0.07 0.07 0.06 0.08 0.11 0.12 0.20 0.11 0.11 0.13 0.19 0.24 0.13 0.06 0.12 0.20 0.17 0.09 0.04 0.02 0.01 0.00 0.01 0.01 0.01 0.01 0.02 0.02 0.01 0.02 0.02 0.00 0.01 0.01 0.00 0.00 0.00 0.00 0.00 0.00 0.00 0.00 0.00 0.00 0.00 0.01 0.00 0.01 0.00 0.00 0.00 0.00 0.00 0.00 0.00 0.01 0.00 0.00 0.00 0.00 0.00 0.01 0.01 0.03 0.05 0.08 0.15 0.45 0.67 0.38 0.44 0.53 0.69 0.74 0.74 0.76 0.80 0.85 1.01 1.13
0.02 0.07 0.16 0.11 0.30 0.09 0.13 0.13 0.14 0.22 0.28 0.24 0.30 0.26 0.29 0.30 0.15 0.10 0.09 0.08 0.08 0.06 0.02 0.01 0.02 0.02 0.02 0.04 0.02 0.03 0.03 0.02 0.02 0.02 0.02 0.01 0.01 0.04 0.01 0.02 0.01 0.01 0.01 0.02 0.01 0.01 0.00 0.00 0.00 0.00 0.00 0.00 0.00 0.00 0.00 0.00 0.00 0.00 0.00 0.00 0.00 0.00 0.00 0.00 0.00 0.00 0.00 0.00 0.00 0.01 0.01 0.02 0.03 0.09 0.25 0.23 0.33 0.45 0.57 0.61 0.60 0.59 0.58 0.63 0.70
0.03 0.00 0.01 0.00 0.01 0.11 0.11 0.18 0.21 0.34 0.42 0.43 0.46 0.43 0.33 0.22 0.13 0.10 0.07 0.06 0.05 0.06 0.04 0.03 0.03 0.05 0.08 0.06 0.03 0.03 0.02 0.01 0.00 0.01 0.01 0.01 0.00 0.00 0.00 0.00 0.00 0.00 0.00 0.00 0.00 0.00 0.00 0.00 0.00 0.00 0.00 0.00 0.00 0.00 0.00 0.00 0.00 0.00 0.00 0.01 0.00 0.00 0.00 0.00 0.00 0.00 0.00 0.00 0.00 0.00 0.00 0.00 0.00 0.01 0.03 0.07 0.21 0.24 0.37 0.39 0.45 0.44 0.47 0.46 0.46
0.03 0.05 0.03 0.00 0.02 0.03 0.05 0.10 0.13 0.21 0.22 0.27 0.33 0.24 0.15 0.10 0.09 0.10 0.12 0.08 0.05 0.08 0.08 0.05 0.04 0.02 0.03 0.00 0.00 0.00 0.00 0.00 0.00 0.00 0.00 0.00 0.00 0.00 0.00 0.00 0.00 0.00 0.00 0.00 0.00 0.00 0.00 0.00 0.00 0.00 0.00 0.00 0.00 0.00 0.00 0.00 0.00 0.01 0.02 0.00 0.00 0.00 0.00 0.00 0.00 0.00 0.00 0.00 0.00 0.00 0.00 0.00 0.00 0.00 0.00 0.01 0.01 0.04 0.17 0.31 0.28 0.30 0.32 0.32 0.34
0.04 0.03 0.02 0.04 0.07 0.21 0.09 0.15 0.13 0.14 0.15 0.13 0.11 0.06 0.06 0.06 0.12 0.08 0.06 0.04 0.02 0.02 0.02 0.02 0.01 0.00 0.01 0.01 0.02 0.01 0.00 0.00 0.00 0.00 0.00 0.00 0.00 0.00 0.00 0.00 0.00 0.00 0.00 0.00 0.00 0.00 0.00 0.00 0.00 0.00 0.00 0.00 0.00 0.00 0.00 0.00 0.00 0.00 0.00 0.00 0.00 0.00 0.00 0.00 0.00 0.00 0.00 0.00 0.00 0.00 0.00 0.00 0.00 0.00 0.00 0.00 0.00 0.00 0.01 0.02 0.06 0.13 0.20 0.20 0.18
0.03 0.03 0.04 0.07 0.08 0.14 0.14 0.16 0.13 0.10 0.10 0.05 0.06 0.10 0.06 0.05 0.02 0.03 0.02 0.00 0.00 0.01 0.01 0.01 0.00 0.00 0.01 0.01 0.02 0.01 0.01 0.03 0.01 0.01 0.00 0.00 0.00 0.00 0.00 0.00 0.00 0.00 0.00 0.00 0.00 0.00 0.00 0.00 0.00 0.00 0.00 0.01 0.01 0.01 0.01 0.00 0.00 0.00 0.00 0.00 0.00 0.00 0.00 0.00 0.00 0.00 0.00 0.00 0.00 0.00 0.00 0.00 0.00 0.00 0.00 0.01 0.00 0.00 0.00 0.01 0.02 0.01 0.06 0.08 0.11
0.05 0.23 0.22 0.10 0.09 0.10 0.12 0.11 0.09 0.11 0.06 0.02 0.02 0.03 0.02 0.01 0.02 0.02 0.01 0.01 0.06 0.02 0.02 0.01 0.01 0.00 0.00 0.00 0.00 0.00 0.01 0.02 0.02 0.01 0.01 0.02 0.01 0.00 0.00 0.00 0.00 0.00 0.00 0.00 0.00 0.00 0.00 0.00 0.00 0.00 0.00 0.00 0.00 0.00 0.00 0.00 0.00 0.00 0.00 0.00 0.00 0.00 0.00 0.00 0.00 0.00 0.00 0.00 0.00 0.00 0.00 0.00 0.00 0.00 0.01 0.05 0.03 0.05 0.00 0.01 0.05 0.05 0.10 0.03 0.07
0.33 0.19 0.14 0.16 0.09 0.08 0.05 0.04 0.02 0.01 0.01 0.01 0.00 0.01 0.02 0.02 0.03 0.02 0.08 0.08 0.02 0.02 0.01 0.01 0.01 0.01 0.01 0.00 0.00 0.00 0.01 0.01 0.01 0.02 0.03 0.04 0.03 0.02 0.01 0.01 0.00 0.01 0.00 0.00 0.00 0.00 0.00 0.00 0.00 0.00 0.00 0.00 0.00 0.00 0.00 0.00 0.00 0.00 0.00 0.00 0.00 0.00 0.00 0.00 0.00 0.00 0.00 0.00 0.00 0.00 0.00 0.00 0.00 0.00 0.01 0.02 0.03 0.03 0.03 0.07 0.13 0.14 0.09 0.05 0.04
0.37 0.30 0.18 0.11 0.08 0.06 0.06 0.04 0.02 0.01 0.00 0.00 0.00 0.00 0.01 0.01 0.01 0.01 0.01 0.01 0.01 0.01 0.00 0.00 0.00 0.01 0.01 0.01 0.01 0.01 0.01 0.02 0.04 0.04 0.02 0.01 0.00 0.00 0.01 0.02 0.03 0.02 0.00 0.00 0.00 0.00 0.00 0.00 0.00 0.00 0.00 0.00 0.00 0.00 0.00 0.00 0.00 0.00 0.00 0.00 0.00 0.00 0.00 0.00 0.00 0.00 0.00 0.00 0.00 0.00 0.00 0.00 0.00 0.00 0.00 0.00 0.00 0.08 0.10 0.02 0.08 0.12 0.09 0.09 0.07
0.25 0.26 0.07 0.07 0.06 0.04 0.02 0.01 0.01 0.00 0.00 0.00 0.00 0.00 0.00 0.00 0.00 0.01 0.01 0.01 0.01 0.00 0.00 0.00 0.00 0.00 0.00 0.00 0.00 0.00 0.00 0.00 0.00 0.00 0.01 0.01 0.01 0.01 0.01 0.01 0.00 0.00 0.01 0.01 0.00 0.00 0.00 0.00 0.00 0.00 0.00 0.00 0.00 0.00 0.00 0.00 0.00 0.00 0.00 0.00 0.00 0.00 0.00 0.00 0.00 0.00 0.00 0.00 0.00 0.00 0.00 0.00 0.00 0.00 0.00 0.00 0.00 0.00 0.01 0.08 0.08 0.03 0.04 0.06 0.04
0.07 0.06 0.06 0.03 0.01 0.01 0.00 0.00 0.00 0.00 0.00 0.00 0.01 0.00 0.00 0.00 0.00 0.01 0.02 0.01 0.00 0.00 0.00 0.00 0.00 0.00 0.00 0.00 0.00 0.00 0.00 0.00 0.00 0.00 0.00 0.00 0.01 0.00 0.00 0.00 0.00 0.00 0.00 0.00 0.00 0.00 0.00 0.00 0.00 0.00 0.00 0.00 0.00 0.00 0.00 0.00 0.00 0.00 0.00 0.00 0.00 0.00 0.00 0.00 0.00 0.00 0.00 0.00 0.00 0.00 0.00 0.00 0.00 0.00 0.00 0.00 0.00 0.00 0.00 0.00 0.00 0.01 0.01 0.02 0.02
0.02 0.05 0.01 0.01 0.01 0.01 0.00 0.00 0.00 0.00 0.00 0.00 0.00 0.00 0.00 0.00 0.00 0.00 0.01 0.00 0.00 0.00 0.00 0.00 0.00 0.00 0.00 0.00 0.00 0.00 0.00 0.00 0.00 0.00 0.00 0.00 0.00 0.00 0.00 0.00 0.00 0.00 0.00 0.00 0.00 0.00 0.00 0.00 0.00 0.00 0.00 0.00 0.00 0.00 0.00 0.00 0.00 0.00 0.00 0.00 0.00 0.00 0.00 0.00 0.00 0.00 0.00 0.00 0.00 0.00 0.00 0.00 0.00 0.00 0.00 0.00 0.00 0.00 0.01 0.01 0.01 0.02 0.02 0.02 0.01
0.01 0.00 0.00 0.00 0.01 0.04 0.01 0.00 0.00 0.00 0.00 0.00 0.00 0.00 0.00 0.00 0.00 0.00 0.00 0.00 0.00 0.00 0.00 0.00 0.00 0.00 0.00 0.00 0.00 0.00 0.00 0.00 0.00 0.00 0.00 0.00 0.00 0.00 0.00 0.00 0.00 0.00 0.00 0.00 0.00 0.00 0.00 0.00 0.00 0.00 0.00 0.00 0.00 0.00 0.00 0.00 0.00 0.00 0.00 0.00 0.00 0.00 0.00 0.00 0.00 0.00 0.00 0.00 0.00 0.00 0.00 0.00 0.00 0.00 0.00 0.00 0.00 0.00 0.00 0.00 0.01 0.01 0.02 0.02 0.02
0.02 0.01 0.00 0.00 0.00 0.00 0.00 0.00 0.00 0.00 0.00 0.00 0.00 0.00 0.00 0.00 0.00 0.00 0.00 0.00 0.00 0.00 0.00 0.00 0.00 0.00 0.00 0.00 0.00 0.00 0.00 0.00 0.00 0.00 0.00 0.00 0.00 0.00 0.00 0.00 0.00 0.00 0.00 0.00 0.00 0.00 0.00 0.00 0.00 0.00 0.00 0.00 0.00 0.00 0.00 0.00 0.00 0.00 0.00 0.00 0.00 0.00 0.00 0.00 0.00 0.00 0.00 0.00 0.00 0.00 0.00 0.00 0.00 0.00 0.00 0.00 0.00 0.00 0.01 0.01 0.02 0.02 0.03 0.03 0.04
0.00 0.00 0.00 0.00 0.00 0.00 0.00 0.00 0.00 0.00 0.00 0.00 0.00 0.00 0.00 0.00 0.00 0.00 0.00 0.00 0.00 0.00 0.00 0.00 0.00 0.00 0.00 0.00 0.00 0.00 0.00 0.00 0.00 0.00 0.00 0.00 0.00 0.00 0.00 0.00 0.00 0.00 0.00 0.00 0.00 0.00 0.00 0.00 0.00 0.00 0.00 0.00 0.00 0.00 0.00 0.00 0.00 0.00 0.00 0.00 0.00 0.00 0.00 0.00 0.00 0.00 0.00 0.00 0.00 0.00 0.00 0.00 0.00 0.00 0.00 0.00 0.00 0.00 0.00 0.00 0.01 0.01 0.03 0.04 0.05